CW8630 Weather Reports


time (UTC)temp
C
wind
direction
speed
KPH
gust
KPH
rain 1hr
cm
rain 24hr
cm
rain mn
cm
humidity
%
barometer
mb
20210920064443 20 99 3.2 11.3 0.00 0.00 0.00 80 1015.3
20210920063938 20 120 3.2 11.3 0.00 0.00 0.00 80 1015.3
20210920063434 21 87 4.8 9.7 0.00 0.00 0.00 80 1015.4
20210920062927 21 157 4.8 9.7 0.00 0.00 0.00 80 1015.5
20210920062420 20 123 4.8 9.7 0.00 0.00 0.00 80 1015.6
20210920061913 20 80 3.2 9.7 0.00 0.00 0.00 79 1015.6
20210920061409 20 129 3.2 9.7 0.00 0.00 0.00 79 1015.6
20210920060902 20 94 3.2 9.7 0.00 0.00 0.00 79 1015.6
20210920060357 20 116 3.2 8.0 0.00 0.00 0.00 79 1015.6
20210920055850 20 149 3.2 8.0 0.00 0.00 0.00 78 1015.6
20210920055345 20 92 3.2 8.0 0.00 0.00 0.00 78 1015.7
20210920054839 20 111 3.2 8.0 0.00 0.00 0.00 78 1015.7
20210920054333 20 113 3.2 8.0 0.00 0.00 0.00 78 1015.7
20210920053826 20 183 1.6 6.4 0.00 0.00 0.00 78 1015.6
20210920053319 20 106 1.6 6.4 0.00 0.00 0.00 78 1015.7
20210920052815 20 122 3.2 4.8 0.00 0.00 0.00 77 1015.6
20210920052310 20 149 3.2 6.4 0.00 0.00 0.00 77 1015.6
20210920051802 20 149 3.2 6.4 0.00 0.00 0.00 76 1015.6
20210920051256 21 172 1.6 6.4 0.00 0.00 0.00 76 1015.7
20210920050751 21 78 1.6 4.8 0.00 0.00 0.00 75 1015.7
20210920050245 21 122 1.6 4.8 0.00 0.00 0.00 74 1015.6
20210920045739 21 138 1.6 4.8 0.00 0.00 0.00 74 1015.7
20210920045232 21 113 1.6 4.8 0.00 0.00 0.00 74 1015.7
20210920044727 21 122 3.2 4.8 0.00 0.00 0.00 74 1015.7
20210920044220 21 116 3.2 4.8 0.00 0.00 0.00 74 1015.7
20210920043715 21 106 3.2 4.8 0.00 0.00 0.00 74 1015.8
20210920043207 21 149 1.6 6.4 0.00 0.00 0.00 73 1015.7
20210920042703 21 149 3.2 6.4 0.00 0.00 0.00 73 1015.7
20210920042157 21 116 1.6 4.8 0.00 0.00 0.00 73 1015.8
20210920041651 21 106 1.6 3.2 0.00 0.00 0.00 72 1015.8
20210920041146 22 149 1.6 4.8 0.00 0.00 0.00 72 1015.8
20210920040640 22 123 1.6 4.8 0.00 0.00 0.00 72 1015.9
20210920040133 22 122 1.6 4.8 0.00 0.00 0.00 71 1015.8
20210920035626 22 149 3.2 4.8 0.00 0.00 0.00 71 1015.9
20210920035120 22 111 3.2 6.4 0.00 0.00 0.00 70 1015.9
20210920034614 22 127 3.2 8.0 0.00 0.00 0.00 70 1015.9
20210920034110 22 127 3.2 8.0 0.00 0.00 0.00 70 1015.9
20210920033602 22 110 3.2 6.4 0.00 0.00 0.00 69 1015.9
20210920033058 22 111 3.2 6.4 0.00 0.00 0.00 69 1015.9
20210920032551 22 110 3.2 6.4 0.00 0.00 0.00 69 1015.9
20210920032045 22 120 3.2 6.4 0.00 0.00 0.00 69 1015.9
20210920031539 22 164 3.2 6.4 0.00 0.00 0.00 69 1015.8
20210920031032 22 106 3.2 4.8 0.00 0.00 0.00 69 1015.8
20210920030526 22 101 3.2 6.4 0.00 0.00 0.00 69 1015.8
20210920030022 22 110 3.2 8.0 0.00 0.00 0.00 69 1015.8
20210920025518 22 116 3.2 8.0 0.00 0.00 0.00 69 1015.7
20210920025008 22 92 3.2 4.8 0.00 0.00 0.00 70 1015.7
20210920024502 22 92 3.2 4.8 0.00 0.00 0.00 69 1015.7
20210920023956 23 87 1.6 4.8 0.00 0.00 0.00 69 1015.7
20210920023450 23 123 1.6 4.8 0.00 0.00 0.00 69 1015.7
20210920022944 23 131 1.6 4.8 0.00 0.00 0.00 67 1015.7
20210920022439 23 135 1.6 4.8 0.00 0.00 0.00 66 1015.7
20210920021932 23 239 1.6 4.8 0.00 0.00 0.00 65 1015.7
20210920021428 23 106 1.6 3.2 0.00 0.00 0.00 65 1015.8
20210920020921 24 118 3.2 6.4 0.00 0.00 0.00 64 1015.7
20210920020414 24 97 3.2 6.4 0.00 0.00 0.00 64 1015.7
20210920015907 24 106 3.2 6.4 0.00 0.00 0.00 64 1015.7
20210920015403 24 189 3.2 6.4 0.00 0.00 0.00 63 1015.7
20210920014857 24 99 3.2 8.0 0.00 0.00 0.00 63 1015.7
20210920014351 24 123 3.2 8.0 0.00 0.00 0.00 62 1015.7
20210920013845 25 211 3.2 6.4 0.00 0.00 0.00 62 1015.7
20210920013338 25 106 3.2 6.4 0.00 0.00 0.00 62 1015.7
20210920012831 25 149 3.2 6.4 0.00 0.00 0.00 61 1015.6
20210920012327 25 122 3.2 8.0 0.00 0.00 0.00 61 1015.7
20210920011821 25 125 1.6 8.0 0.00 0.00 0.00 62 1015.6
20210920011313 25 126 1.6 4.8 0.00 0.00 0.00 62 1015.5
20210920010809 25 149 1.6 4.8 0.00 0.00 0.00 61 1015.5
20210920010303 25 172 1.6 4.8 0.00 0.00 0.00 61 1015.4
20210920005755 25 149 1.6 4.8 0.00 0.00 0.00 60 1015.4
20210920005251 25 87 1.6 4.8 0.00 0.00 0.00 59 1015.4
20210920004746 26 123 3.2 6.4 0.00 0.00 0.00 58 1015.3
20210920004239 26 118 3.2 6.4 0.00 0.00 0.00 58 1015.3
20210920003732 26 127 3.2 4.8 0.00 0.00 0.00 57 1015.2
20210920003226 26 127 3.2 6.4 0.00 0.00 0.00 56 1015.1
20210920002720 26 123 3.2 6.4 0.00 0.00 0.00 56 1015.1
20210920002213 27 129 3.2 6.4 0.00 0.00 0.00 55 1015.1
20210920001707 27 141 3.2 6.4 0.00 0.00 0.00 55 1015.1
20210920001206 27 126 4.8 6.4 0.00 0.00 0.00 54 1015.0
20210920000708 27 111 4.8 9.7 0.00 0.00 0.00 53 1015.1
20210920000206 27 113 4.8 9.7 0.00 0.00 0.00 52 1015.0
20210919235706 28 127 4.8 8.0 0.00 0.00 0.00 52 1015.1
20210919235206 28 146 4.8 8.0 0.00 0.00 0.00 51 1015.0
20210919234705 28 92 4.8 9.7 0.00 0.00 0.00 50 1015.0
20210919234206 28 111 4.8 12.9 0.00 0.00 0.00 49 1015.0
20210919233706 28 113 6.4 12.9 0.00 0.00 0.00 49 1015.0
20210919233205 29 92 6.4 16.1 0.00 0.00 0.00 48 1015.0
20210919232706 29 92 6.4 16.1 0.00 0.00 0.00 48 1015.0
20210919232208 29 108 8.0 14.5 0.00 0.00 0.00 48 1015.0
20210919231709 29 125 8.0 14.5 0.00 0.00 0.00 47 1015.0
20210919231208 30 135 8.0 14.5 0.00 0.00 0.00 47 1015.0
20210919230702 30 96 8.0 14.5 0.00 0.00 0.00 46 1015.1
20210919230205 30 111 8.0 16.1 0.00 0.00 0.00 46 1015.1
20210919225703 30 106 8.0 16.1 0.00 0.00 0.00 46 1015.1
20210919225201 30 116 8.0 16.1 0.00 0.00 0.00 45 1015.1
20210919224702 30 106 8.0 19.3 0.00 0.00 0.00 45 1015.2
20210919224203 30 126 9.7 19.3 0.00 0.00 0.00 45 1015.2
20210919223703 30 154 8.0 16.1 0.00 0.00 0.00 46 1015.2
20210919223205 30 67 6.4 16.1 0.00 0.00 0.00 47 1015.3
20210919222704 30 99 8.0 16.1 0.00 0.00 0.00 47 1015.2
20210919222157 30 135 9.7 17.7 0.00 0.00 0.00 45 1015.3
20210919221659 31 52 9.7 17.7 0.00 0.00 0.00 45 1015.3
20210919221158 31 103 8.0 17.7 0.00 0.00 0.00 45 1015.2
20210919220657 31 106 8.0 17.7 0.00 0.00 0.00 44 1015.3
20210919220157 31 133 9.7 17.7 0.00 0.00 0.00 45 1015.3
20210919215657 31 104 8.0 17.7 0.00 0.00 0.00 45 1015.3
20210919215158 30 116 8.0 12.9 0.00 0.00 0.00 46 1015.4
20210919214657 30 109 9.7 20.9 0.00 0.00 0.00 45 1015.4
20210919214159 30 167 9.7 22.5 0.00 0.00 0.00 45 1015.4
20210919213654 31 130 9.7 19.3 0.00 0.00 0.00 44 1015.4
20210919213153 31 80 9.7 19.3 0.00 0.00 0.00 43 1015.4
20210919212655 31 113 9.7 19.3 0.00 0.00 0.00 43 1015.5
20210919212155 31 140 9.7 19.3 0.00 0.00 0.00 42 1015.4
20210919211651 31 128 8.0 17.7 0.00 0.00 0.00 43 1015.5
20210919211152 31 110 8.0 12.9 0.00 0.00 0.00 43 1015.6
20210919210652 31 118 8.0 17.7 0.00 0.00 0.00 42 1015.6
20210919210151 31 161 8.0 17.7 0.00 0.00 0.00 44 1015.6
20210919205651 31 146 8.0 17.7 0.00 0.00 0.00 42 1015.6
20210919205151 31 164 6.4 17.7 0.00 0.00 0.00 43 1015.6
20210919204651 31 118 8.0 17.7 0.00 0.00 0.00 43 1015.7
20210919204152 31 78 8.0 19.3 0.00 0.00 0.00 42 1015.8
20210919203649 31 118 8.0 19.3 0.00 0.00 0.00 42 1015.9
20210919203150 31 193 6.4 17.7 0.00 0.00 0.00 41 1015.9
20210919202651 31 181 9.7 20.9 0.00 0.00 0.00 43 1016.1
20210919202149 31 196 9.7 20.9 0.00 0.00 0.00 42 1016.2
20210919201643 31 217 9.7 22.5 0.00 0.00 0.00 42 1016.2
20210919201138 31 213 9.7 22.5 0.00 0.00 0.00 41 1016.2
20210919200633 31 186 8.0 20.9 0.00 0.00 0.00 42 1016.3
20210919200126 31 73 8.0 16.1 0.00 0.00 0.00 43 1016.4
20210919195620 31 99 6.4 19.3 0.00 0.00 0.00 43 1016.4
20210919195114 30 193 6.4 19.3 0.00 0.00 0.00 46 1016.5
20210919194608 30 113 6.4 16.1 0.00 0.00 0.00 45 1016.6
20210919194101 31 165 6.4 16.1 0.00 0.00 0.00 44 1016.7
20210919193554 31 135 9.7 22.5 0.00 0.00 0.00 45 1016.8
20210919193048 31 101 9.7 22.5 0.00 0.00 0.00 44 1016.8
20210919192544 31 87 9.7 22.5 0.00 0.00 0.00 45 1016.9
20210919192038 31 196 9.7 22.5 0.00 0.00 0.00 44 1016.9
20210919191533 31 87 9.7 17.7 0.00 0.00 0.00 45 1017.0
20210919191025 30 89 9.7 22.5 0.00 0.00 0.00 45 1017.0
20210919190520 30 188 9.7 22.5 0.00 0.00 0.00 46 1017.2
20210919190013 30 174 11.3 25.7 0.00 0.00 0.00 47 1017.3
20210919185508 31 182 9.7 25.7 0.00 0.00 0.00 46 1017.4
20210919185001 30 106 8.0 14.5 0.00 0.00 0.00 48 1017.4
20210919184455 30 116 9.7 25.7 0.00 0.00 0.00 49 1017.5
20210919183950 30 189 8.0 25.7 0.00 0.00 0.00 48 1017.7
20210919183445 30 110 6.4 17.7 0.00 0.00 0.00 48 1017.7
20210919182939 29 232 6.4 12.9 0.00 0.00 0.00 51 1017.7
20210919182432 29 186 6.4 16.1 0.00 0.00 0.00 51 1017.8
20210919181926 29 135 8.0 16.1 0.00 0.00 0.00 51 1017.9
20210919181419 30 80 6.4 14.5 0.00 0.00 0.00 51 1018.0
20210919180914 28 273 4.8 14.5 0.00 0.00 0.00 53 1018.1
20210919180408 29 331 6.4 16.1 0.00 0.00 0.00 51 1018.1
20210919175900 30 196 6.4 17.7 0.00 0.00 0.00 50 1018.2
20210919175356 30 80 6.4 19.3 0.00 0.00 0.00 52 1018.3
20210919174849 29 106 6.4 19.3 0.00 0.00 0.00 52 1018.3
20210919174344 30 134 8.0 19.3 0.00 0.00 0.00 50 1018.4
20210919173837 30 249 8.0 17.7 0.00 0.00 0.00 50 1018.4
20210919173330 29 125 8.0 24.1 0.00 0.00 0.00 54 1018.5
20210919172824 29 116 8.0 24.1 0.00 0.00 0.00 53 1018.5
20210919172321 29 120 9.7 22.5 0.00 0.00 0.00 53 1018.7
20210919171814 29 157 9.7 22.5 0.00 0.00 0.00 53 1018.9
20210919171308 28 211 8.0 22.5 0.00 0.00 0.00 56 1018.9
20210919170801 28 163 6.4 22.5 0.00 0.00 0.00 56 1019.0
20210919170257 28 108 6.4 11.3 0.00 0.00 0.00 57 1019.1
20210919165750 28 111 6.4 12.9 0.00 0.00 0.00 59 1019.1
20210919165243 28 78 4.8 12.9 0.00 0.00 0.00 58 1019.2
20210919164736 27 149 3.2 8.0 0.00 0.00 0.00 59 1019.2
20210919164232 27 87 4.8 11.3 0.00 0.00 0.00 61 1019.3
20210919163726 27 84 6.4 11.3 0.00 0.00 0.00 60 1019.5
20210919163220 27 92 4.8 11.3 0.00 0.00 0.00 62 1019.5
20210919162718 27 99 4.8 11.3 0.00 0.00 0.00 60 1019.6
20210919162216 27 92 4.8 9.7 0.00 0.00 0.00 61 1019.6
20210919161717 27 80 4.8 9.7 0.00 0.00 0.00 62 1019.7
20210919161217 26 141 4.8 9.7 0.00 0.00 0.00 63 1019.7
20210919160716 26 87 4.8 11.3 0.00 0.00 0.00 64 1019.7
20210919160217 26 66 3.2 11.3 0.00 0.00 0.00 63 1019.8
20210919155717 26 135 3.2 11.3 0.00 0.00 0.00 66 1019.8
20210919155217 26 131 4.8 11.3 0.00 0.00 0.00 66 1019.8
20210919154719 26 127 4.8 8.0 0.00 0.00 0.00 65 1019.9
20210919154217 25 164 4.8 8.0 0.00 0.00 0.00 66 1020.0
20210919153716 25 109 4.8 9.7 0.00 0.00 0.00 66 1020.0
20210919153217 25 116 4.8 9.7 0.00 0.00 0.00 68 1020.1
20210919152717 25 133 4.8 9.7 0.00 0.00 0.00 69 1020.1
20210919152219 25 97 4.8 11.3 0.00 0.00 0.00 69 1020.1
20210919151718 24 108 4.8 11.3 0.00 0.00 0.00 70 1020.1
20210919151216 24 168 4.8 8.0 0.00 0.00 0.00 70 1020.1
20210919150718 24 123 4.8 11.3 0.00 0.00 0.00 71 1020.1
20210919150212 23 207 6.4 11.3 0.00 0.00 0.00 71 1020.1
20210919145711 23 175 4.8 11.3 0.00 0.00 0.00 71 1020.1
20210919145211 23 96 4.8 11.3 0.00 0.00 0.00 73 1020.1
20210919144711 23 89 4.8 9.7 0.00 0.00 0.00 74 1020.1
20210919144210 23 106 4.8 12.9 0.00 0.00 0.00 75 1020.1
20210919143706 23 130 6.4 12.9 0.00 0.00 0.00 75 1020.2
20210919143204 22 118 6.4 11.3 0.00 0.00 0.00 76 1020.3
20210919142705 22 106 6.4 11.3 0.00 0.00 0.00 76 1020.2
20210919142206 22 113 4.8 9.7 0.00 0.00 0.00 77 1020.2
20210919141705 22 149 6.4 12.9 0.00 0.00 0.00 76 1020.2
20210919141205 21 149 6.4 12.9 0.00 0.00 0.00 79 1020.2
20210919140705 21 77 6.4 12.9 0.00 0.00 0.00 78 1020.2
20210919140204 21 171 4.8 12.9 0.00 0.00 0.00 80 1020.3
20210919135705 21 126 6.4 9.7 0.00 0.00 0.00 80 1020.2
20210919135205 21 111 6.4 11.3 0.00 0.00 0.00 81 1020.3
20210919134705 20 101 6.4 11.3 0.00 0.00 0.00 82 1020.3
20210919134204 20 99 6.4 11.3 0.00 0.00 0.00 82 1020.3
20210919133703 20 122 6.4 11.3 0.00 0.00 0.00 82 1020.4
20210919133202 20 103 6.4 11.3 0.00 0.00 0.00 84 1020.4
20210919132658 20 135 4.8 11.3 0.00 0.00 0.00 85 1020.4
20210919132152 19 140 4.8 8.0 0.00 0.00 0.00 86 1020.5
20210919131645 18 120 4.8 8.0 0.00 0.00 0.00 87 1020.4
20210919131139 18 109 4.8 8.0 0.00 0.00 0.00 88 1020.4
20210919130634 18 116 4.8 8.0 0.00 0.00 0.00 88 1020.4
20210919130128 18 139 3.2 8.0 0.00 0.00 0.00 90 1020.4
20210919125629 17 120 3.2 6.4 0.00 0.00 0.00 90 1020.4
20210919125129 17 106 3.2 4.8 0.00 0.00 0.00 91 1020.4
20210919124628 17 113 3.2 4.8 0.00 0.00 0.00 92 1020.5
20210919124128 17 106 1.6 4.8 0.00 0.00 0.00 92 1020.4
20210919123628 16 118 1.6 4.8 0.00 0.00 0.00 93 1020.4
20210919123128 16 106 1.6 3.2 0.00 0.00 0.00 94 1020.4
20210919122628 16 94 1.6 4.8 0.00 0.00 0.00 95 1020.4
20210919122131 16 78 1.6 4.8 0.00 0.00 0.00 95 1020.4
20210919121629 16 92 1.6 3.2 0.00 0.00 0.00 96 1020.4
20210919121124 16 123 1.6 3.2 0.00 0.00 0.00 96 1020.4
20210919120625 15 99 1.6 3.2 0.00 0.00 0.00 96 1020.4
20210919120126 15 106 1.6 3.2 0.00 0.00 0.00 95 1020.4
20210919115624 15 106 1.6 3.2 0.00 0.00 0.00 95 1020.3
20210919115124 15 75 1.6 3.2 0.00 0.00 0.00 96 1020.3
20210919114625 15 106 1.6 3.2 0.00 0.00 0.00 95 1020.3
20210919114125 15 94 1.6 3.2 0.00 0.00 0.00 95 1020.2
20210919113626 15 106 1.6 3.2 0.00 0.00 0.00 96 1020.2
20210919113125 15 113 1.6 3.2 0.00 0.00 0.00 95 1020.2
20210919112626 15 106 1.6 3.2 0.00 0.00 0.00 95 1020.2
20210919112126 15 113 1.6 3.2 0.00 0.00 0.00 95 1020.1
20210919111624 15 106 1.6 3.2 0.00 0.00 0.00 95 1020.1
20210919111126 15 116 1.6 3.2 0.00 0.00 0.00 96 1020.2
20210919110626 15 123 1.6 3.2 0.00 0.00 0.00 95 1020.2
20210919110126 15 78 1.6 3.2 0.00 0.00 0.00 95 1020.1
20210919105624 15 75 1.6 3.2 0.00 0.00 0.00 95 1020.1
20210919105125 15 87 1.6 3.2 0.00 0.00 0.00 95 1020.1
20210919104622 15 87 1.6 3.2 0.00 0.00 0.00 94 1020.1
20210919104117 16 75 1.6 3.2 0.00 0.00 0.00 94 1020.0
20210919103610 16 16 1.6 3.2 0.00 0.00 0.00 94 1020.0
20210919103105 16 106 1.6 3.2 0.00 0.00 0.00 94 1020.0
20210919102558 16 94 1.6 3.2 0.00 0.00 0.00 94 1020.0
20210919102052 16 87 1.6 3.2 0.00 0.00 0.00 95 1020.0
20210919101546 16 106 1.6 3.2 0.00 0.00 0.00 95 1020.0
20210919101041 16 106 1.6 3.2 0.00 0.00 0.00 95 1020.0
20210919100534 15 97 1.6 3.2 0.00 0.00 0.00 95 1020.0
20210919100028 16 78 1.6 3.2 0.00 0.00 0.00 95 1019.9
20210919095526 15 60 1.6 1.6 0.00 0.00 0.00 95 1020.0
20210919095027 15 60 1.6 3.2 0.00 0.00 0.00 95 1020.0
20210919094524 15 60 1.6 3.2 0.00 0.00 0.00 94 1020.0
20210919094025 15 94 1.6 1.6 0.00 0.00 0.00 94 1020.0
20210919093524 15 78 1.6 1.6 0.00 0.00 0.00 93 1019.9
20210919093025 16 78 1.6 1.6 0.00 0.00 0.00 92 1019.9
20210919092525 16 87 1.6 3.2 0.00 0.00 0.00 92 1019.9
20210919092025 16 87 1.6 3.2 0.00 0.00 0.00 93 1019.9
20210919091525 16 106 1.6 3.2 0.00 0.00 0.00 93 1019.9
20210919091025 16 106 1.6 3.2 0.00 0.00 0.00 92 1020.0
20210919090524 16 75 1.6 3.2 0.00 0.00 0.00 92 1020.0
20210919090024 16 106 1.6 3.2 0.00 0.00 0.00 92 1020.0
20210919085524 16 87 1.6 3.2 0.00 0.00 0.00 91 1020.0
20210919085026 16 60 1.6 3.2 0.00 0.00 0.00 91 1020.0
20210919084524 16 75 1.6 3.2 0.00 0.00 0.00 91 1020.0
20210919084022 16 106 1.6 3.2 0.00 0.00 0.00 91 1020.0
20210919083521 16 78 1.6 3.2 0.00 0.00 0.00 91 1020.0
20210919083016 16 75 1.6 4.8 0.00 0.00 0.00 91 1020.1
20210919082510 16 78 1.6 4.8 0.00 0.00 0.00 91 1020.2
20210919082006 16 73 1.6 4.8 0.00 0.00 0.00 91 1020.1
20210919081458 16 75 1.6 4.8 0.00 0.00 0.00 91 1020.1
20210919080953 16 83 1.6 3.2 0.00 0.00 0.00 92 1020.2
20210919080448 16 77 1.6 3.2 0.00 0.00 0.00 92 1020.2
20210919075941 16 97 1.6 3.2 0.00 0.00 0.00 93 1020.2
20210919075433 15 60 1.6 3.2 0.00 0.00 0.00 92 1020.2
20210919074928 15 78 0.0 3.2 0.00 0.00 0.00 92 1020.2
20210919074424 15 87 0.0 1.6 0.00 0.00 0.00 92 1020.3
20210919073917 16 331 0.0 3.2 0.00 0.00 0.00 91 1020.3
20210919073411 16 16 1.6 3.2 0.00 0.00 0.00 90 1020.3
20210919072904 16 75 1.6 3.2 0.00 0.00 0.00 90 1020.3
20210919072358 16 94 1.6 3.2 0.00 0.00 0.00 90 1020.4
20210919071853 16 97 1.6 3.2 0.00 0.00 0.00 90 1020.4
20210919071346 16 110 1.6 3.2 0.00 0.00 0.00 90 1020.3
20210919070842 16 106 1.6 3.2 0.00 0.00 0.00 90 1020.4
20210919070334 16 106 1.6 3.2 0.00 0.00 0.00 89 1020.4
20210919065828 16 97 1.6 4.8 0.00 0.00 0.00 89 1020.4
20210919065322 16 94 1.6 4.8 0.00 0.00 0.00 89 1020.4